Total_Precipitation_Accumulation
1.62 1.72 1.56 1.41 1.25 1.52 1.78 1.80 1.64 1.77 1.80 1.89 1.86 1.85 1.86 1.58 1.38 1.28 1.32 1.54 1.51 1.46 1.53 1.59 1.54 1.44 1.39 1.26 1.10 0.94 0.80 0.75 0.68 0.61 0.54 0.46 0.37 0.29 0.25 0.16 0.10 0.06 0.04
1.48 1.54 1.48 1.37 1.30 1.46 1.65 1.67 1.64 1.84 1.94 1.94 1.66 1.59 1.58 1.62 1.48 1.27 1.38 1.53 1.58 1.44 1.48 1.67 1.73 1.70 1.71 1.59 1.38 1.21 1.01 0.86 0.70 0.55 0.50 0.49 0.40 0.31 0.33 0.36 0.39 0.14 0.04
1.17 1.28 1.30 1.25 1.28 1.34 1.38 1.35 1.38 1.57 1.55 1.48 1.35 1.31 1.36 1.39 1.40 1.38 1.25 1.28 1.42 1.48 1.41 1.54 1.64 1.67 1.78 1.79 1.66 1.45 1.23 1.00 0.78 0.55 0.43 0.42 0.38 0.28 0.25 0.32 0.38 0.20 0.08
0.89 0.98 0.95 0.97 1.02 1.06 1.06 1.04 1.06 1.18 1.27 1.38 1.38 1.27 1.39 1.43 1.37 1.45 1.44 1.31 1.41 1.36 1.56 1.69 1.66 1.60 1.77 1.95 1.97 1.81 1.49 1.13 0.89 0.69 0.52 0.41 0.37 0.29 0.24 0.24 0.24 0.22 0.13
0.80 0.84 0.81 0.83 0.78 0.79 0.81 0.77 0.85 0.97 1.06 1.13 1.08 1.15 1.13 1.17 1.15 1.15 1.30 1.17 1.22 1.32 1.48 1.57 1.65 1.58 1.79 2.10 2.34 2.42 2.13 1.54 1.12 0.92 0.81 0.68 0.54 0.40 0.32 0.31 0.25 0.20 0.16
0.71 0.69 0.64 0.61 0.55 0.57 0.62 0.66 0.76 0.83 0.86 0.91 0.85 0.91 0.89 0.84 0.88 0.93 0.90 0.94 1.00 0.97 1.16 1.35 1.49 1.27 1.55 1.94 2.18 2.40 2.48 2.18 1.68 1.27 1.10 0.99 0.84 0.59 0.37 0.30 0.29 0.26 0.21
0.62 0.56 0.48 0.47 0.42 0.41 0.44 0.45 0.53 0.61 0.64 0.71 0.82 0.82 0.73 0.69 0.70 0.69 0.66 0.69 0.73 0.85 1.07 1.22 1.27 1.23 1.11 1.19 1.27 1.55 2.01 2.34 2.20 1.74 1.40 1.21 1.11 0.84 0.51 0.36 0.31 0.29 0.25
0.48 0.44 0.43 0.40 0.38 0.38 0.37 0.39 0.45 0.50 0.52 0.58 0.66 0.68 0.64 0.64 0.64 0.53 0.60 0.61 0.65 0.81 0.93 0.93 1.01 1.10 0.93 1.07 0.83 0.99 1.43 1.83 2.21 2.17 1.77 1.39 1.21 1.01 0.75 0.56 0.41 0.34 0.31
0.33 0.36 0.38 0.39 0.39 0.34 0.33 0.35 0.36 0.38 0.40 0.42 0.51 0.59 0.60 0.58 0.53 0.49 0.51 0.53 0.59 0.68 0.71 0.80 0.76 0.76 0.84 0.92 0.89 0.83 1.09 1.24 1.71 2.19 2.13 1.72 1.36 1.11 0.97 0.86 0.70 0.50 0.39
0.26 0.26 0.28 0.33 0.33 0.33 0.33 0.26 0.27 0.32 0.34 0.31 0.35 0.43 0.42 0.46 0.52 0.53 0.48 0.50 0.57 0.55 0.54 0.58 0.60 0.63 0.68 0.76 0.79 0.68 0.64 0.81 1.24 1.79 2.09 2.00 1.69 1.31 1.16 1.17 1.32 1.20 0.83
0.31 0.24 0.22 0.26 0.30 0.36 0.40 0.35 0.33 0.31 0.30 0.28 0.28 0.36 0.36 0.31 0.37 0.47 0.48 0.46 0.48 0.40 0.38 0.39 0.40 0.48 0.52 0.61 0.73 0.65 0.54 0.63 0.82 1.14 1.45 1.67 1.71 1.60 1.44 1.45 1.78 1.98 1.77
0.38 0.34 0.32 0.35 0.37 0.35 0.36 0.37 0.40 0.39 0.37 0.34 0.27 0.30 0.43 0.40 0.31 0.36 0.38 0.42 0.41 0.29 0.30 0.35 0.37 0.41 0.48 0.59 0.60 0.53 0.61 0.69 0.70 0.76 0.91 1.08 1.28 1.40 1.49 1.61 1.82 2.10 2.18
0.34 0.34 0.34 0.38 0.40 0.39 0.36 0.34 0.34 0.40 0.46 0.46 0.36 0.28 0.31 0.42 0.37 0.32 0.32 0.31 0.34 0.33 0.37 0.39 0.43 0.50 0.59 0.80 0.71 0.63 0.62 0.68 0.68 0.68 0.68 0.71 0.80 0.92 1.05 1.24 1.49 1.76 2.01
0.38 0.34 0.30 0.30 0.31 0.33 0.34 0.31 0.27 0.28 0.35 0.44 0.46 0.46 0.42 0.35 0.42 0.37 0.31 0.34 0.39 0.44 0.51 0.51 0.60 0.69 0.81 0.90 0.90 0.73 0.56 0.48 0.43 0.44 0.44 0.45 0.50 0.57 0.67 0.78 0.91 1.11 1.27
0.37 0.34 0.30 0.26 0.25 0.26 0.29 0.29 0.27 0.27 0.28 0.29 0.36 0.50 0.51 0.41 0.38 0.39 0.38 0.43 0.57 0.55 0.58 0.69 0.85 0.91 0.85 0.87 0.78 0.65 0.49 0.43 0.38 0.34 0.33 0.34 0.36 0.38 0.43 0.48 0.53 0.64 0.75
0.32 0.31 0.27 0.24 0.21 0.20 0.21 0.25 0.27 0.30 0.34 0.37 0.38 0.44 0.54 0.58 0.51 0.48 0.48 0.53 0.66 0.66 0.67 0.72 0.86 0.89 0.78 0.63 0.58 0.59 0.51 0.49 0.43 0.35 0.29 0.30 0.32 0.33 0.32 0.34 0.34 0.34 0.38
0.33 0.31 0.29 0.26 0.20 0.19 0.21 0.24 0.25 0.30 0.35 0.44 0.52 0.52 0.52 0.63 0.71 0.65 0.64 0.64 0.69 0.74 0.73 0.71 0.84 0.88 0.77 0.58 0.52 0.54 0.55 0.56 0.47 0.42 0.34 0.30 0.30 0.31 0.30 0.31 0.33 0.31 0.29
0.40 0.37 0.34 0.32 0.26 0.22 0.24 0.26 0.25 0.28 0.36 0.45 0.60 0.75 0.76 0.71 0.69 0.67 0.66 0.67 0.73 0.85 0.85 0.77 0.83 0.90 0.87 0.77 0.67 0.57 0.48 0.49 0.53 0.54 0.46 0.38 0.33 0.32 0.30 0.29 0.30 0.30 0.30
0.41 0.44 0.42 0.40 0.36 0.35 0.35 0.32 0.29 0.30 0.33 0.37 0.48 0.71 0.90 1.03 0.94 0.77 0.68 0.65 0.72 0.86 0.97 0.90 0.89 1.04 1.05 0.97 0.82 0.64 0.51 0.49 0.45 0.48 0.49 0.44 0.39 0.36 0.33 0.30 0.29 0.28 0.25
0.43 0.49 0.52 0.52 0.49 0.45 0.41 0.38 0.41 0.40 0.36 0.35 0.41 0.50 0.61 0.82 0.98 1.04 0.92 0.79 0.77 0.84 0.94 0.95 1.05 1.28 1.33 1.21 0.96 0.77 0.66 0.56 0.49 0.41 0.42 0.43 0.40 0.36 0.34 0.32 0.29 0.26 0.25
0.54 0.63 0.66 0.65 0.62 0.58 0.48 0.48 0.53 0.48 0.48 0.45 0.44 0.44 0.41 0.49 0.62 0.79 0.89 0.96 0.94 0.88 0.92 0.99 1.21 1.63 1.67 1.43 1.05 0.86 0.78 0.73 0.63 0.51 0.45 0.38 0.35 0.32 0.31 0.33 0.34 0.32 0.28
0.87 0.88 0.85 0.83 0.77 0.64 0.59 0.55 0.53 0.51 0.54 0.55 0.54 0.51 0.43 0.39 0.41 0.50 0.61 0.75 0.90 0.94 0.94 1.01 1.21 1.51 1.67 1.57 1.31 1.09 0.86 0.73 0.66 0.61 0.56 0.48 0.42 0.38 0.32 0.28 0.33 0.33 0.32
1.01 1.00 0.98 0.95 0.91 0.87 0.74 0.58 0.50 0.50 0.52 0.55 0.62 0.64 0.48 0.34 0.40 0.44 0.51 0.55 0.61 0.71 0.83 0.92 1.06 1.26 1.54 1.68 1.51 1.14 0.97 0.88 0.70 0.63 0.63 0.57 0.53 0.48 0.40 0.36 0.39 0.32 0.31
0.88 0.85 0.84 0.84 0.87 0.82 0.73 0.56 0.47 0.46 0.51 0.54 0.58 0.61 0.57 0.46 0.44 0.47 0.50 0.48 0.46 0.47 0.53 0.65 0.78 1.00 1.28 1.60 1.76 1.51 1.31 1.14 0.93 0.80 0.67 0.61 0.61 0.54 0.46 0.41 0.44 0.38 0.32
0.74 0.68 0.65 0.68 0.73 0.76 0.70 0.57 0.54 0.51 0.52 0.52 0.53 0.56 0.58 0.52 0.45 0.37 0.41 0.42 0.41 0.42 0.41 0.46 0.56 0.74 0.98 1.29 1.64 1.76 1.48 1.14 0.98 0.81 0.69 0.60 0.55 0.59 0.57 0.47 0.45 0.48 0.40
0.83 0.79 0.72 0.69 0.68 0.75 0.73 0.59 0.55 0.53 0.56 0.58 0.68 0.71 0.65 0.56 0.47 0.34 0.35 0.40 0.39 0.36 0.41 0.43 0.44 0.52 0.66 0.91 1.25 1.44 1.44 1.15 0.92 0.80 0.59 0.53 0.51 0.53 0.58 0.51 0.40 0.40 0.40